Regional Weather Roundup
Issued by NWS

Home | Current Version | Previous Version | Graphics & Text | Print | Product List | Glossary On
Versions: 1 2 3 4 5 6 7 8 9 10 11 12 13 14 15 16 17 18 19 20 21 22 23 24 25 26 27 28 29 30 31 32 33 34 35 36 37 38 39 40 41 42 43 44 45 46 47 48 49 50
929
ASUS43 KBIS 231810
RWRND

NORTH DAKOTA REGIONAL WEATHER ROUNDUP
NATIONAL WEATHER SERVICE BISMARCK ND
100 PM CDT THU MAR 23 2017

NOTE: "FAIR" INDICATES FEW OR NO CLOUDS BELOW 12,000 FEET WITH NO
SIGNIFICANT WEATHER AND/OR OBSTRUCTIONS TO VISIBILITY.


NDZ001>003-009>011-017-231900-
NORTHWEST NORTH DAKOTA

CITY           SKY/WX    TMP DP  RH WIND       PRES   REMARKS
WILLISTON      FAIR      49  37  63 N8        29.76F
6HR MIN TEMP:  31; 6HR MAX TEMP:  49;

MINOT          FAIR      47  36  65 NW9       29.73F
MINOT AFB      CLOUDY    43  36  75 N9        29.73F
$$

NDZ018>021-031>035-040>046-231900-
SOUTHWEST NORTH DAKOTA

CITY           SKY/WX    TMP DP  RH WIND       PRES   REMARKS
BISMARCK       LGT RAIN  38  36  92 NE7       29.74F
6HR MIN TEMP:  33; 6HR MAX TEMP:  38; 6HR PCP:  0.17;

DICKINSON      CLOUDY    56  30  37 NE13      29.70F
GARRISON         N/A     38  32  79 CALM      29.75R
6HR MIN TEMP:  31; 6HR MAX TEMP:  38;

HETTINGER ARPT LGT RAIN  43  39  86 N10       29.73R
$$

NDZ004>008-012>016-024-026-027-054-231900-
NORTHEAST NORTH DAKOTA

CITY           SKY/WX    TMP DP  RH WIND       PRES   REMARKS
GRAND FORKS    RAIN      35  34  96 S7        29.82F FOG
GRND FRKS AFB  LGT RAIN  34  33  96 S7        29.82F FOG
DEVILS LAKE    CLOUDY    35  31  85 S7        29.79F
$$

NDZ022-023-025-028>030-036>039-047>053-231900-
SOUTHEAST NORTH DAKOTA

CITY           SKY/WX    TMP DP  RH WIND       PRES   REMARKS
FARGO          CLOUDY    42  31  64 S18G30    29.83R
6HR MIN TEMP:  36; 6HR MAX TEMP:  43; 6HR PCP:  0.02;

JAMESTOWN      LGT RAIN  38  33  82 S8        29.78R
$$





USA.gov is the U.S. government's official web portal to all federal, state and local government web resources and services.